Oxford, CT

6:37 AM EDT on March 25, 2017 (GMT -0400)
Waterbury-Oxford

Weather History for KOXC - November, 2014

Change the Weather History Date:

Friday, November 7, 2014

  Actual Average Record
Temperature  
Mean Temperature 40 °F -  
Max Temperature 46 °F 49 °F 64 °F (2004)
Min Temperature 35 °F 33 °F 23 °F (1998)
Degree Days  
Heating Degree Days 24    
Moisture  
Dew Point 32 °F    
Average Humidity 68    
Maximum Humidity 87    
Minimum Humidity 49    
Precipitation  
Precipitation 0.00 in - - ()
Sea Level Pressure  
Sea Level Pressure 29.66 in    
Wind  
Wind Speed 6 mph (NW)    
Max Wind Speed 20 mph    
Max Gust Speed 26 mph    
Visibility 10 miles    
Events      
Averages and records for this station are not official NWS values.
T = Trace of Precipitation, MM = Missing Value Source: NWS Daily Summary

Daily Weather History Graph

Daily Weather History Graph

Search for Another Location

Airport or City:

Trip Planner

Search our weather history database for the weather conditions in past years. The results will help you decide how hot, cold, wet, or windy it might be!

Date:

Astronomy

Nov. 07, 2014 Rise Set
Actual Time 6:31 AM EST 4:40 PM EST
Civil Twilight 6:02 AM EST 5:09 PM EST
Nautical Twilight 5:29 AM EST 5:42 PM EST
Astronomical Twilight 4:56 AM EST 6:15 PM EST
Moon 5:30 PM EST (11/7) 7:04 AM EST (11/7)
Length of Visible Light 11h 07m
Length of Day
10h 09m
Full, 99% of the Moon is Illuminated
Nov 7
Full
Nov 14
Last Quarter
Nov 22
New
Nov 29
First Quarter
Dec 6
Full

Hourly Weather History & Observations

Time (EST) Temp. Windchill Dew Point Humidity Pressure Visibility Wind Dir Wind Speed Gust Speed Precip Events Conditions
12:15 AM 46.4 °F - 41.0 °F 81% 29.60 in 5.0 mi Calm Calm - N/A   Overcast
12:35 AM 44.6 °F - 41.0 °F 87% 29.58 in 8.0 mi Calm Calm - N/A   Overcast
12:55 AM 44.6 °F 43.1 °F 41.0 °F 87% 29.57 in 7.0 mi West 3.5 mph - N/A   Overcast
1:15 AM 44.6 °F 43.1 °F 41.0 °F 87% 29.57 in 10.0 mi West 3.5 mph - N/A   Overcast
1:35 AM 44.6 °F 43.1 °F 39.2 °F 81% 29.56 in 10.0 mi West 3.5 mph - N/A   Overcast
1:55 AM 44.6 °F 40.7 °F 39.2 °F 81% 29.58 in 10.0 mi WNW 6.9 mph - N/A   Overcast
2:15 AM 44.6 °F 41.4 °F 39.2 °F 81% 29.55 in 10.0 mi WNW 5.8 mph - N/A   Overcast
2:35 AM 44.6 °F 42.2 °F 39.2 °F 81% 29.55 in 10.0 mi WNW 4.6 mph - N/A   Overcast
2:55 AM 44.6 °F 42.2 °F 39.2 °F 81% 29.55 in 10.0 mi WNW 4.6 mph - N/A   Overcast
3:15 AM 44.6 °F 42.2 °F 39.2 °F 81% 29.56 in 10.0 mi NW 4.6 mph - N/A   Overcast
3:35 AM 44.6 °F 43.1 °F 39.2 °F 81% 29.55 in 10.0 mi NW 3.5 mph - N/A   Overcast
3:55 AM 44.6 °F 40.7 °F 37.4 °F 76% 29.54 in 10.0 mi NNW 6.9 mph - N/A   Overcast
4:15 AM 44.6 °F 41.4 °F 37.4 °F 76% 29.55 in 10.0 mi NW 5.8 mph - N/A   Overcast
4:35 AM 44.6 °F 40.7 °F 37.4 °F 76% 29.55 in 10.0 mi NW 6.9 mph - N/A   Overcast
4:55 AM 42.8 °F 38.6 °F 37.4 °F 81% 29.56 in 10.0 mi NW 6.9 mph - N/A   Overcast
5:15 AM 42.8 °F 38.0 °F 35.6 °F 76% 29.56 in 10.0 mi NW 8.1 mph - N/A   Overcast
5:35 AM 42.8 °F 38.0 °F 35.6 °F 76% 29.56 in 10.0 mi NW 8.1 mph - N/A   Overcast
5:48 AM 42.8 °F 37.5 °F 35.6 °F 76% 29.56 in 10.0 mi North 9.2 mph - N/A   Overcast
7:45 AM 42.8 °F 37.0 °F 33.8 °F 70% 29.59 in 10.0 mi NNW 10.4 mph 16.1 mph N/A   Overcast
8:45 AM 42.8 °F 35.8 °F 33.8 °F 70% 29.60 in 10.0 mi NNW 13.8 mph 21.9 mph N/A   Overcast
9:45 AM 42.8 °F 36.2 °F 33.8 °F 70% 29.61 in 10.0 mi NNW 12.7 mph 20.7 mph N/A   Overcast
11:52 AM 46.4 °F 39.0 °F 30.2 °F 53% 29.61 in 10.0 mi North 19.6 mph 26.5 mph N/A   Mostly Cloudy
12:52 PM 44.6 °F 37.8 °F 28.4 °F 53% 29.61 in 10.0 mi North 15.0 mph 23.0 mph N/A   Mostly Cloudy
1:52 PM 44.6 °F 38.4 °F 28.4 °F 53% 29.62 in 10.0 mi NNW 12.7 mph 19.6 mph N/A   Mostly Cloudy
2:52 PM 44.6 °F 38.1 °F 26.6 °F 49% 29.65 in 10.0 mi NW 13.8 mph 21.9 mph N/A   Mostly Cloudy
3:52 PM 44.6 °F 38.8 °F 26.6 °F 49% 29.67 in 10.0 mi NW 11.5 mph 19.6 mph N/A   Mostly Cloudy
4:52 PM 41.0 °F 35.8 °F 28.4 °F 61% 29.71 in 10.0 mi NW 8.1 mph 17.3 mph N/A   Scattered Clouds
5:48 PM 39.2 °F 33.0 °F 28.4 °F 65% 29.74 in 10.0 mi WNW 9.2 mph 20.7 mph N/A   Scattered Clouds
6:53 PM 39.2 °F 33.0 °F 24.8 °F 56% 29.77 in 10.0 mi NW 9.2 mph - N/A   Partly Cloudy
7:48 PM 39.2 °F 32.0 °F 24.8 °F 56% 29.79 in 10.0 mi NNW 11.5 mph 17.3 mph N/A   Clear
9:15 PM 37.4 °F 30.3 °F 23.0 °F 56% 29.83 in 10.0 mi NW 10.4 mph - N/A   Clear
9:35 PM 37.4 °F - 23.0 °F 56% 29.85 in 10.0 mi Calm Calm - N/A   Clear
9:55 PM 35.6 °F 29.9 °F 23.0 °F 60% 29.85 in 10.0 mi NW 6.9 mph - N/A   Clear
10:15 PM 35.6 °F 29.9 °F 23.0 °F 60% 29.86 in 10.0 mi NW 6.9 mph - N/A   Partly Cloudy
10:35 PM 35.6 °F 29.9 °F 21.2 °F 56% 29.86 in 10.0 mi NW 6.9 mph - N/A   Partly Cloudy
10:55 PM 35.6 °F 29.2 °F 21.2 °F 56% 29.87 in 10.0 mi NNW 8.1 mph - N/A   Mostly Cloudy
11:15 PM 35.6 °F 30.7 °F 21.2 °F 56% 29.87 in 10.0 mi NW 5.8 mph - N/A   Overcast
11:35 PM 35.6 °F 30.7 °F 21.2 °F 56% 29.88 in 10.0 mi NW 5.8 mph - N/A   Mostly Cloudy
11:55 PM 35.6 °F 27.5 °F 21.2 °F 56% 29.87 in 10.0 mi NNW 11.5 mph - N/A   Scattered Clouds